Saint Bonnet de Bellac- Haute Vienne - France
Donnes mto: lundi, 14/05/2012
Date Horaire Temp. E. Hum. E. P.atmo. Pluie Vent Direction Direction Ensoleilleme Solaire P. de rose Temp au vent Rafales
14/05/2012 00:00 7,8 C 70 % 1022,7 hPa 0,0 mm 0,0 km/h (0 Bft) N-NE 22 0 min 0 W/m 2,7 C 7,8 C 0,0 km/h (0 Bft)
14/05/2012 00:10 7,5 C 71 % 1022,6 hPa 0,0 mm 0,0 km/h (0 Bft) N-NE 22 0 min 0 W/m 2,6 C 7,5 C 0,0 km/h (0 Bft)
14/05/2012 00:20 7,3 C 72 % 1022,6 hPa 0,0 mm 0,0 km/h (0 Bft) N-NE 22 0 min 0 W/m 2,6 C 7,3 C 0,0 km/h (0 Bft)
14/05/2012 00:30 6,9 C 72 % 1022,6 hPa 0,0 mm 0,0 km/h (0 Bft) N-NE 22 0 min 0 W/m 2,2 C 6,9 C 0,0 km/h (0 Bft)
14/05/2012 00:40 6,8 C 73 % 1022,6 hPa 0,0 mm 0,0 km/h (0 Bft) N-NE 22 0 min 0 W/m 2,3 C 6,8 C 0,0 km/h (0 Bft)
14/05/2012 00:50 6,5 C 74 % 1022,7 hPa 0,0 mm 0,0 km/h (0 Bft) N 360 0 min 0 W/m 2,2 C 6,5 C 0,0 km/h (0 Bft)
14/05/2012 01:00 6,3 C 75 % 1022,5 hPa 0,0 mm 0,0 km/h (0 Bft) NE 45 0 min 0 W/m 2,2 C 6,3 C 0,0 km/h (0 Bft)
14/05/2012 01:10 6,1 C 75 % 1022,5 hPa 0,0 mm 0,0 km/h (0 Bft) NE 45 0 min 0 W/m 2,0 C 6,1 C 0,0 km/h (0 Bft)
14/05/2012 01:20 5,9 C 75 % 1022,5 hPa 0,0 mm 0,0 km/h (0 Bft) NE 45 0 min 0 W/m 1,8 C 5,9 C 0,0 km/h (0 Bft)
14/05/2012 01:30 5,8 C 77 % 1022,5 hPa 0,0 mm 0,0 km/h (0 Bft) NE 45 0 min 0 W/m 2,1 C 5,8 C 0,0 km/h (0 Bft)
14/05/2012 01:40 5,6 C 77 % 1022,3 hPa 0,0 mm 0,0 km/h (0 Bft) NE 45 0 min 0 W/m 1,9 C 5,6 C 0,0 km/h (0 Bft)
14/05/2012 01:50 5,4 C 78 % 1022,3 hPa 0,0 mm 0,0 km/h (0 Bft) NE 45 0 min 0 W/m 1,9 C 5,4 C 0,0 km/h (0 Bft)
14/05/2012 02:00 5,3 C 79 % 1022,2 hPa 0,0 mm 0,0 km/h (0 Bft) NE 45 0 min 0 W/m 2,0 C 5,3 C 0,0 km/h (0 Bft)
14/05/2012 02:10 5,2 C 79 % 1021,9 hPa 0,0 mm 0,0 km/h (0 Bft) NE 45 0 min 0 W/m 1,9 C 5,2 C 0,0 km/h (0 Bft)
14/05/2012 02:20 5,1 C 80 % 1021,7 hPa 0,0 mm 0,0 km/h (0 Bft) NE 45 0 min 0 W/m 1,9 C 5,1 C 0,0 km/h (0 Bft)
14/05/2012 02:30 5,1 C 81 % 1021,6 hPa 0,0 mm 0,0 km/h (0 Bft) NE 45 0 min 0 W/m 2,1 C 5,1 C 0,0 km/h (0 Bft)
14/05/2012 02:40 5,1 C 81 % 1021,4 hPa 0,0 mm 0,0 km/h (0 Bft) NE 45 0 min 0 W/m 2,1 C 5,1 C 0,0 km/h (0 Bft)
14/05/2012 02:50 5,1 C 82 % 1021,5 hPa 0,0 mm 0,0 km/h (0 Bft) S-SO 202 0 min 0 W/m 2,3 C 5,1 C 0,0 km/h (0 Bft)
14/05/2012 03:02 4,9 C 82 % 1021,2 hPa 0,0 mm 0,0 km/h (0 Bft) E-NE 67 0 min 0 W/m 2,1 C 4,9 C 0,0 km/h (0 Bft)
14/05/2012 03:10 4,8 C 82 % 1021,0 hPa 0,0 mm 0,0 km/h (0 Bft) NE 45 0 min 0 W/m 2,0 C 4,8 C 0,0 km/h (0 Bft)
14/05/2012 03:20 4,7 C 85 % 1021,2 hPa 0,0 mm 0,0 km/h (0 Bft) O-SO 247 0 min 0 W/m 2,4 C 4,7 C 0,0 km/h (0 Bft)
14/05/2012 03:30 4,4 C 84 % 1021,0 hPa 0,0 mm 0,0 km/h (0 Bft) O-SO 247 0 min 0 W/m 1,9 C 4,4 C 0,0 km/h (0 Bft)
14/05/2012 03:40 4,2 C 84 % 1020,8 hPa 0,0 mm 0,0 km/h (0 Bft) NE 45 0 min 0 W/m 1,7 C 4,2 C 0,0 km/h (0 Bft)
14/05/2012 03:50 4,1 C 85 % 1021,0 hPa 0,0 mm 0,0 km/h (0 Bft) SO 225 0 min 0 W/m 1,8 C 4,1 C 0,0 km/h (0 Bft)
14/05/2012 04:00 3,9 C 84 % 1020,7 hPa 0,0 mm 0,0 km/h (0 Bft) SO 225 0 min 0 W/m 1,4 C 3,9 C 0,0 km/h (0 Bft)
14/05/2012 04:10 3,8 C 85 % 1020,6 hPa 0,0 mm 0,0 km/h (0 Bft) E-SE 112 0 min 0 W/m 1,5 C 3,8 C 0,0 km/h (0 Bft)
14/05/2012 04:20 3,8 C 85 % 1020,5 hPa 0,0 mm 0,0 km/h (0 Bft) E-SE 112 0 min 0 W/m 1,5 C 3,8 C 0,0 km/h (0 Bft)
14/05/2012 04:30 3,8 C 85 % 1020,3 hPa 0,0 mm 0,0 km/h (0 Bft) E-NE 67 0 min 0 W/m 1,5 C 3,8 C 0,0 km/h (0 Bft)
14/05/2012 04:40 3,8 C 85 % 1020,3 hPa 0,0 mm 0,0 km/h (0 Bft) E-NE 67 0 min 0 W/m 1,5 C 3,8 C 0,0 km/h (0 Bft)
14/05/2012 04:50 3,6 C 86 % 1020,4 hPa 0,0 mm 0,0 km/h (0 Bft) SO 225 0 min 0 W/m 1,5 C 3,6 C 0,0 km/h (0 Bft)
14/05/2012 05:00 3,4 C 86 % 1020,4 hPa 0,0 mm 0,0 km/h (0 Bft) SO 225 0 min 0 W/m 1,3 C 3,4 C 0,0 km/h (0 Bft)
14/05/2012 05:10 3,1 C 86 % 1020,3 hPa 0,0 mm 0,0 km/h (0 Bft) SO 225 0 min 0 W/m 1,0 C 3,1 C 0,0 km/h (0 Bft)
14/05/2012 05:20 3,0 C 86 % 1019,9 hPa 0,0 mm 0,0 km/h (0 Bft) S 180 0 min 0 W/m 0,9 C 3,0 C 0,0 km/h (0 Bft)
14/05/2012 05:30 3,1 C 87 % 1019,9 hPa 0,0 mm 0,0 km/h (0 Bft) E-NE 67 0 min 0 W/m 1,2 C 3,1 C 0,0 km/h (0 Bft)
14/05/2012 05:40 3,2 C 88 % 1019,9 hPa 0,0 mm 0,0 km/h (0 Bft) E-NE 67 0 min 0 W/m 1,4 C 3,2 C 0,0 km/h (0 Bft)
14/05/2012 05:50 3,1 C 87 % 1019,7 hPa 0,0 mm 0,0 km/h (0 Bft) E-NE 67 0 min 0 W/m 1,2 C 3,1 C 0,0 km/h (0 Bft)
14/05/2012 06:00 2,9 C 87 % 1019,5 hPa 0,0 mm 0,4 km/h (0 Bft) NE 45 0 min 0 W/m 1,0 C 2,9 C 3,2 km/h (1 Bft)
14/05/2012 06:10 3,1 C 87 % 1019,4 hPa 0,0 mm 0,0 km/h (0 Bft) NE 45 0 min 0 W/m 1,2 C 3,1 C 0,0 km/h (0 Bft)
14/05/2012 06:20 3,1 C 87 % 1019,4 hPa 0,0 mm 0,0 km/h (0 Bft) NE 45 0 min 0 W/m 1,2 C 3,1 C 0,0 km/h (0 Bft)
14/05/2012 06:30 2,9 C 87 % 1019,0 hPa 0,0 mm 0,0 km/h (0 Bft) E-NE 67 0 min 0 W/m 1,0 C 2,9 C 0,0 km/h (0 Bft)
14/05/2012 06:40 2,8 C 87 % 1019,1 hPa 0,0 mm 0,0 km/h (0 Bft) SO 225 0 min 0 W/m 0,9 C 2,8 C 0,0 km/h (0 Bft)
14/05/2012 06:50 2,6 C 87 % 1019,1 hPa 0,0 mm 0,0 km/h (0 Bft) SO 225 0 min 0 W/m 0,7 C 2,6 C 0,0 km/h (0 Bft)
14/05/2012 07:00 2,5 C 88 % 1019,2 hPa 0,0 mm 0,0 km/h (0 Bft) E-NE 67 0 min 0 W/m 0,7 C 2,5 C 0,0 km/h (0 Bft)
14/05/2012 07:10 2,6 C 88 % 1019,1 hPa 0,0 mm 0,0 km/h (0 Bft) O-SO 247 0 min 0 W/m 0,8 C 2,6 C 0,0 km/h (0 Bft)
14/05/2012 07:20 2,9 C 88 % 1019,2 hPa 0,0 mm 0,0 km/h (0 Bft) O-SO 247 0 min 0 W/m 1,1 C 2,9 C 0,0 km/h (0 Bft)
14/05/2012 07:30 3,2 C 88 % 1019,0 hPa 0,0 mm 0,7 km/h (0 Bft) NE 45 0 min 0 W/m 1,4 C 3,2 C 4,0 km/h (1 Bft)
14/05/2012 07:40 3,6 C 89 % 1019,1 hPa 0,0 mm 0,0 km/h (0 Bft) NE 45 0 min 0 W/m 2,0 C 3,6 C 0,0 km/h (0 Bft)
14/05/2012 07:50 4,2 C 90 % 1019,4 hPa 0,0 mm 0,0 km/h (0 Bft) O-NO 292 0 min 0 W/m 2,7 C 4,2 C 0,0 km/h (0 Bft)
14/05/2012 08:00 4,8 C 90 % 1019,5 hPa 0,0 mm 0,0 km/h (0 Bft) O-SO 247 0 min 0 W/m 3,3 C 4,8 C 0,0 km/h (0 Bft)
14/05/2012 08:10 5,4 C 90 % 1019,4 hPa 0,0 mm 0,0 km/h (0 Bft) NE 45 0 min 0 W/m 3,9 C 5,4 C 0,0 km/h (0 Bft)
14/05/2012 08:20 6,0 C 90 % 1019,5 hPa 0,0 mm 0,0 km/h (0 Bft) NE 45 0 min 0 W/m 4,5 C 6,0 C 0,0 km/h (0 Bft)
14/05/2012 08:30 6,6 C 90 % 1019,7 hPa 0,0 mm 0,0 km/h (0 Bft) NE 45 0 min 0 W/m 5,1 C 6,6 C 0,0 km/h (0 Bft)
14/05/2012 08:40 7,3 C 89 % 1019,7 hPa 0,0 mm 0,0 km/h (0 Bft) NE 45 0 min 0 W/m 5,6 C 7,3 C 0,0 km/h (0 Bft)
14/05/2012 08:50 7,8 C 90 % 1019,7 hPa 0,0 mm 3,2 km/h (1 Bft) N-NE 22 0 min 0 W/m 6,3 C 7,8 C 4,3 km/h (1 Bft)
14/05/2012 09:00 8,4 C 89 % 1019,6 hPa 0,0 mm 2,2 km/h (1 Bft) N-NE 22 0 min 0 W/m 6,7 C 8,4 C 4,3 km/h (1 Bft)
14/05/2012 09:10 9,1 C 88 % 1019,6 hPa 0,0 mm 0,7 km/h (0 Bft) N-NE 22 0 min 0 W/m 7,2 C 9,1 C 3,6 km/h (1 Bft)
14/05/2012 09:20 9,7 C 86 % 1019,6 hPa 0,0 mm 1,1 km/h (1 Bft) E-NE 67 0 min 0 W/m 7,5 C 9,7 C 4,0 km/h (1 Bft)
14/05/2012 09:30 10,4 C 84 % 1019,5 hPa 0,0 mm 1,1 km/h (1 Bft) NE 45 0 min 0 W/m 7,8 C 10,4 C 3,2 km/h (1 Bft)
14/05/2012 09:40 11,0 C 82 % 1019,5 hPa 0,0 mm 0,7 km/h (0 Bft) N-NE 22 0 min 0 W/m 8,0 C 11,0 C 4,3 km/h (1 Bft)
14/05/2012 09:50 11,8 C 80 % 1019,2 hPa 0,0 mm 3,6 km/h (1 Bft) N-NE 22 0 min 0 W/m 8,5 C 11,8 C 4,3 km/h (1 Bft)
14/05/2012 10:00 12,5 C 78 % 1019,1 hPa 0,0 mm 2,9 km/h (1 Bft) N-NE 22 0 min 0 W/m 8,8 C 12,5 C 4,0 km/h (1 Bft)
14/05/2012 10:10 13,1 C 76 % 1019,0 hPa 0,0 mm 0,7 km/h (0 Bft) NE 45 0 min 0 W/m 9,0 C 13,1 C 4,0 km/h (1 Bft)
14/05/2012 10:20 13,9 C 75 % 1018,9 hPa 0,0 mm 0,4 km/h (0 Bft) N-NE 22 0 min 0 W/m 9,5 C 13,9 C 3,2 km/h (1 Bft)
14/05/2012 10:30 14,6 C 71 % 1018,8 hPa 0,0 mm 1,1 km/h (1 Bft) N-NO 337 0 min 0 W/m 9,4 C 14,6 C 4,0 km/h (1 Bft)
14/05/2012 10:40 15,3 C 68 % 1018,9 hPa 0,0 mm 4,0 km/h (1 Bft) N-NO 337 0 min 0 W/m 9,4 C 15,3 C 7,6 km/h (2 Bft)
14/05/2012 10:50 15,9 C 64 % 1018,9 hPa 0,0 mm 1,4 km/h (1 Bft) N 360 0 min 0 W/m 9,1 C 15,9 C 6,5 km/h (2 Bft)
14/05/2012 11:00 16,5 C 60 % 1018,9 hPa 0,0 mm 6,5 km/h (2 Bft) N-NE 22 0 min 0 W/m 8,7 C 16,5 C 9,0 km/h (2 Bft)
14/05/2012 11:10 16,6 C 58 % 1018,7 hPa 0,0 mm 3,2 km/h (1 Bft) E-NE 67 0 min 0 W/m 8,3 C 16,6 C 4,3 km/h (1 Bft)
14/05/2012 11:20 16,8 C 58 % 1018,7 hPa 0,0 mm 4,3 km/h (1 Bft) N 360 0 min 0 W/m 8,5 C 16,8 C 4,3 km/h (1 Bft)
14/05/2012 11:30 16,9 C 58 % 1018,7 hPa 0,0 mm 1,4 km/h (1 Bft) N-NO 337 0 min 0 W/m 8,6 C 16,9 C 4,3 km/h (1 Bft)
14/05/2012 11:40 17,1 C 56 % 1018,9 hPa 0,0 mm 0,0 km/h (0 Bft) N-NO 337 0 min 0 W/m 8,3 C 17,1 C 0,0 km/h (0 Bft)
14/05/2012 11:50 17,2 C 54 % 1018,7 hPa 0,0 mm 2,2 km/h (1 Bft) N 360 0 min 0 W/m 7,8 C 17,2 C 3,6 km/h (1 Bft)
14/05/2012 12:00 17,3 C 56 % 1018,4 hPa 0,0 mm 1,1 km/h (1 Bft) E-NE 67 0 min 0 W/m 8,4 C 17,3 C 6,5 km/h (2 Bft)
14/05/2012 12:10 17,7 C 52 % 1018,4 hPa 0,0 mm 2,5 km/h (1 Bft) NE 45 0 min 0 W/m 7,7 C 17,7 C 4,3 km/h (1 Bft)
14/05/2012 12:20 17,8 C 53 % 1018,2 hPa 0,0 mm 5,0 km/h (1 Bft) N-NE 22 0 min 0 W/m 8,1 C 17,8 C 9,4 km/h (2 Bft)
14/05/2012 12:30 17,9 C 52 % 1018,3 hPa 0,0 mm 3,6 km/h (1 Bft) NO 315 0 min 0 W/m 7,9 C 17,9 C 7,6 km/h (2 Bft)
14/05/2012 12:40 18,4 C 53 % 1018,2 hPa 0,0 mm 1,8 km/h (1 Bft) NE 45 0 min 0 W/m 8,6 C 18,4 C 3,6 km/h (1 Bft)
14/05/2012 12:50 18,5 C 52 % 1018,2 hPa 0,0 mm 4,7 km/h (1 Bft) N-NO 337 0 min 0 W/m 8,5 C 18,5 C 4,7 km/h (1 Bft)
14/05/2012 13:00 18,9 C 52 % 1018,1 hPa 0,0 mm 1,8 km/h (1 Bft) N-NE 22 0 min 0 W/m 8,8 C 18,9 C 4,0 km/h (1 Bft)
14/05/2012 13:10 19,1 C 49 % 1018,0 hPa 0,0 mm 7,9 km/h (2 Bft) NE 45 0 min 0 W/m 8,1 C 19,1 C 13,3 km/h (3 Bft)
14/05/2012 13:20 19,2 C 49 % 1017,8 hPa 0,0 mm 4,0 km/h (1 Bft) N 360 0 min 0 W/m 8,2 C 19,2 C 6,8 km/h (2 Bft)
14/05/2012 13:30 19,2 C 50 % 1017,8 hPa 0,0 mm 1,4 km/h (1 Bft) N 360 0 min 0 W/m 8,5 C 19,2 C 1,4 km/h (1 Bft)
14/05/2012 13:40 19,4 C 49 % 1017,8 hPa 0,0 mm 1,1 km/h (1 Bft) N 360 0 min 0 W/m 8,4 C 19,4 C 2,9 km/h (1 Bft)
14/05/2012 13:50 19,5 C 48 % 1017,7 hPa 0,0 mm 2,5 km/h (1 Bft) NE 45 0 min 0 W/m 8,2 C 19,5 C 3,6 km/h (1 Bft)
14/05/2012 14:00 19,6 C 48 % 1017,5 hPa 0,0 mm 3,2 km/h (1 Bft) N-NE 22 0 min 0 W/m 8,3 C 19,6 C 3,2 km/h (1 Bft)
14/05/2012 14:10 19,7 C 48 % 1017,4 hPa 0,0 mm 6,1 km/h (2 Bft) E-NE 67 0 min 0 W/m 8,4 C 19,7 C 10,4 km/h (2 Bft)
14/05/2012 14:20 19,8 C 46 % 1017,4 hPa 0,0 mm 3,2 km/h (1 Bft) N-NE 22 0 min 0 W/m 7,8 C 19,8 C 4,3 km/h (1 Bft)
14/05/2012 14:30 20,1 C 47 % 1017,2 hPa 0,0 mm 6,1 km/h (2 Bft) NE 45 0 min 0 W/m 8,4 C 20,1 C 6,1 km/h (2 Bft)
14/05/2012 14:40 20,3 C 45 % 1017,1 hPa 0,0 mm 3,6 km/h (1 Bft) N-NE 22 0 min 0 W/m 8,0 C 20,3 C 3,6 km/h (1 Bft)
14/05/2012 14:50 20,3 C 45 % 1017,1 hPa 0,0 mm 3,6 km/h (1 Bft) NE 45 0 min 0 W/m 8,0 C 20,3 C 4,3 km/h (1 Bft)
14/05/2012 15:00 20,3 C 46 % 1017,0 hPa 0,0 mm 1,4 km/h (1 Bft) NE 45 0 min 0 W/m 8,3 C 20,3 C 4,3 km/h (1 Bft)
14/05/2012 15:10 20,4 C 46 % 1016,9 hPa 0,0 mm 0,0 km/h (0 Bft) N-NO 337 0 min 0 W/m 8,4 C 20,4 C 0,0 km/h (0 Bft)
14/05/2012 15:20 20,6 C 46 % 1016,8 hPa 0,0 mm 5,4 km/h (2 Bft) E-NE 67 0 min 0 W/m 8,6 C 20,6 C 12,2 km/h (2 Bft)
14/05/2012 15:30 20,6 C 45 % 1016,8 hPa 0,0 mm 0,4 km/h (0 Bft) N 360 0 min 0 W/m 8,2 C 20,6 C 3,2 km/h (1 Bft)
14/05/2012 15:40 20,8 C 44 % 1016,7 hPa 0,0 mm 0,0 km/h (0 Bft) E-NE 67 0 min 0 W/m 8,1 C 20,8 C 0,0 km/h (0 Bft)
14/05/2012 15:50 20,9 C 46 % 1016,5 hPa 0,0 mm 2,5 km/h (1 Bft) NE 45 0 min 0 W/m 8,8 C 20,9 C 7,9 km/h (2 Bft)
14/05/2012 16:00 21,1 C 44 % 1016,3 hPa 0,0 mm 1,4 km/h (1 Bft) N-NE 22 0 min 0 W/m 8,4 C 21,1 C 1,4 km/h (1 Bft)
14/05/2012 16:10 21,3 C 45 % 1016,3 hPa 0,0 mm 4,0 km/h (1 Bft) N-NE 22 0 min 0 W/m 8,9 C 21,3 C 7,9 km/h (2 Bft)
14/05/2012 16:20 21,5 C 46 % 1016,3 hPa 0,0 mm 3,2 km/h (1 Bft) NE 45 0 min 0 W/m 9,4 C 21,5 C 4,7 km/h (1 Bft)
14/05/2012 16:30 21,4 C 45 % 1016,3 hPa 0,0 mm 7,9 km/h (2 Bft) N 360 0 min 0 W/m 9,0 C 21,4 C 8,6 km/h (2 Bft)
14/05/2012 16:40 21,4 C 46 % 1016,1 hPa 0,0 mm 0,7 km/h (0 Bft) NE 45 0 min 0 W/m 9,3 C 21,4 C 7,6 km/h (2 Bft)
14/05/2012 16:50 21,4 C 45 % 1016,0 hPa 0,0 mm 1,1 km/h (1 Bft) NO 315 0 min 0 W/m 9,0 C 21,4 C 2,9 km/h (1 Bft)
14/05/2012 17:00 21,4 C 45 % 1015,9 hPa 0,0 mm 6,5 km/h (2 Bft) NO 315 0 min 0 W/m 9,0 C 21,4 C 8,6 km/h (2 Bft)
14/05/2012 17:10 21,3 C 42 % 1015,9 hPa 0,0 mm 0,0 km/h (0 Bft) O 270 0 min 0 W/m 7,9 C 21,3 C 0,0 km/h (0 Bft)
14/05/2012 17:20 21,1 C 45 % 1015,9 hPa 0,0 mm 0,7 km/h (0 Bft) N-NO 337 0 min 0 W/m 8,7 C 21,1 C 5,8 km/h (2 Bft)
14/05/2012 17:30 20,9 C 44 % 1015,8 hPa 0,0 mm 0,7 km/h (0 Bft) N-NO 337 0 min 0 W/m 8,2 C 20,9 C 4,0 km/h (1 Bft)
14/05/2012 17:40 20,8 C 43 % 1015,7 hPa 0,0 mm 1,1 km/h (1 Bft) N-NE 22 0 min 0 W/m 7,8 C 20,8 C 4,3 km/h (1 Bft)
14/05/2012 17:50 20,7 C 42 % 1015,7 hPa 0,0 mm 0,0 km/h (0 Bft) E-NE 67 0 min 0 W/m 7,3 C 20,7 C 0,0 km/h (0 Bft)
14/05/2012 18:00 20,5 C 42 % 1015,6 hPa 0,0 mm 3,2 km/h (1 Bft) N-NO 337 0 min 0 W/m 7,1 C 20,5 C 9,0 km/h (2 Bft)
14/05/2012 18:10 20,3 C 44 % 1015,7 hPa 0,0 mm 4,0 km/h (1 Bft) N-NO 337 0 min 0 W/m 7,6 C 20,3 C 7,2 km/h (2 Bft)
14/05/2012 18:20 20,4 C 44 % 1015,8 hPa 0,0 mm 5,8 km/h (2 Bft) N-NO 337 0 min 0 W/m 7,7 C 20,4 C 6,8 km/h (2 Bft)
14/05/2012 18:30 20,6 C 44 % 1015,8 hPa 0,0 mm 2,9 km/h (1 Bft) N-NE 22 0 min 0 W/m 7,9 C 20,6 C 4,3 km/h (1 Bft)
14/05/2012 18:40 20,6 C 44 % 1015,7 hPa 0,0 mm 0,4 km/h (0 Bft) O-SO 247 0 min 0 W/m 7,9 C 20,6 C 0,4 km/h (0 Bft)
14/05/2012 18:50 20,1 C 44 % 1015,6 hPa 0,0 mm 2,2 km/h (1 Bft) O-NO 292 0 min 0 W/m 7,5 C 20,1 C 4,0 km/h (1 Bft)
14/05/2012 19:00 19,7 C 45 % 1015,5 hPa 0,0 mm 1,8 km/h (1 Bft) NO 315 0 min 0 W/m 7,4 C 19,7 C 4,3 km/h (1 Bft)
14/05/2012 19:10 19,4 C 46 % 1015,5 hPa 0,0 mm 3,6 km/h (1 Bft) NO 315 0 min 0 W/m 7,5 C 19,4 C 6,8 km/h (2 Bft)
14/05/2012 19:20 19,3 C 47 % 1015,4 hPa 0,0 mm 4,7 km/h (1 Bft) N-NO 337 0 min 0 W/m 7,7 C 19,3 C 4,7 km/h (1 Bft)
14/05/2012 19:30 19,3 C 46 % 1015,5 hPa 0,0 mm 7,6 km/h (2 Bft) NE 45 0 min 0 W/m 7,4 C 19,3 C 10,4 km/h (2 Bft)
14/05/2012 19:40 19,4 C 46 % 1015,6 hPa 0,0 mm 1,1 km/h (1 Bft) N-NO 337 0 min 0 W/m 7,5 C 19,4 C 4,0 km/h (1 Bft)
14/05/2012 19:50 19,4 C 46 % 1015,6 hPa 0,0 mm 3,6 km/h (1 Bft) N-NO 337 0 min 0 W/m 7,5 C 19,4 C 4,3 km/h (1 Bft)
14/05/2012 20:00 19,2 C 45 % 1015,6 hPa 0,0 mm 3,6 km/h (1 Bft) NO 315 0 min 0 W/m 7,0 C 19,2 C 4,3 km/h (1 Bft)
14/05/2012 20:10 18,8 C 44 % 1015,6 hPa 0,0 mm 1,1 km/h (1 Bft) O-NO 292 0 min 0 W/m 6,3 C 18,8 C 4,0 km/h (1 Bft)
14/05/2012 20:20 18,2 C 46 % 1015,6 hPa 0,0 mm 1,1 km/h (1 Bft) NO 315 0 min 0 W/m 6,4 C 18,2 C 1,1 km/h (1 Bft)
14/05/2012 20:30 17,6 C 47 % 1015,5 hPa 0,0 mm 1,1 km/h (1 Bft) N-NO 337 0 min 0 W/m 6,2 C 17,6 C 4,0 km/h (1 Bft)
14/05/2012 20:40 16,9 C 48 % 1015,5 hPa 0,0 mm 0,0 km/h (0 Bft) NO 315 0 min 0 W/m 5,8 C 16,9 C 0,0 km/h (0 Bft)
14/05/2012 20:50 16,4 C 49 % 1015,7 hPa 0,0 mm 0,4 km/h (0 Bft) NO 315 0 min 0 W/m 5,7 C 16,4 C 3,6 km/h (1 Bft)
14/05/2012 21:00 15,8 C 51 % 1015,8 hPa 0,0 mm 0,0 km/h (0 Bft) NO 315 0 min 0 W/m 5,7 C 15,8 C 3,2 km/h (1 Bft)
14/05/2012 21:10 15,2 C 53 % 1016,0 hPa 0,0 mm 0,0 km/h (0 Bft) NO 315 0 min 0 W/m 5,7 C 15,2 C 0,0 km/h (0 Bft)
14/05/2012 21:20 14,6 C 55 % 1016,0 hPa 0,0 mm 0,0 km/h (0 Bft) O-NO 292 0 min 0 W/m 5,7 C 14,6 C 0,0 km/h (0 Bft)
14/05/2012 21:30 14,2 C 56 % 1016,1 hPa 0,0 mm 0,0 km/h (0 Bft) O-NO 292 0 min 0 W/m 5,6 C 14,2 C 3,2 km/h (1 Bft)
14/05/2012 21:40 13,7 C 58 % 1016,0 hPa 0,0 mm 0,0 km/h (0 Bft) O-NO 292 0 min 0 W/m 5,6 C 13,7 C 0,0 km/h (0 Bft)
14/05/2012 21:50 13,3 C 60 % 1016,1 hPa 0,0 mm 0,7 km/h (0 Bft) O-SO 247 0 min 0 W/m 5,7 C 13,3 C 0,7 km/h (0 Bft)
14/05/2012 22:00 12,9 C 62 % 1016,0 hPa 0,0 mm 0,0 km/h (0 Bft) O-SO 247 0 min 0 W/m 5,8 C 12,9 C 0,0 km/h (0 Bft)
14/05/2012 22:10 12,6 C 61 % 1016,1 hPa 0,0 mm 0,0 km/h (0 Bft) O-SO 247 0 min 0 W/m 5,3 C 12,6 C 1,4 km/h (1 Bft)
14/05/2012 22:20 12,2 C 63 % 1016,2 hPa 0,0 mm 0,0 km/h (0 Bft) SO 225 0 min 0 W/m 5,4 C 12,2 C 0,0 km/h (0 Bft)
14/05/2012 22:30 11,8 C 64 % 1016,1 hPa 0,0 mm 0,0 km/h (0 Bft) S-SO 202 0 min 0 W/m 5,2 C 11,8 C 0,0 km/h (0 Bft)
14/05/2012 22:40 11,6 C 64 % 1016,2 hPa 0,0 mm 0,0 km/h (0 Bft) S-SO 202 0 min 0 W/m 5,0 C 11,6 C 0,0 km/h (0 Bft)
14/05/2012 22:50 11,4 C 65 % 1016,3 hPa 0,0 mm 0,0 km/h (0 Bft) O-SO 247 0 min 0 W/m 5,1 C 11,4 C 0,0 km/h (0 Bft)
14/05/2012 23:00 11,3 C 65 % 1016,3 hPa 0,0 mm 0,0 km/h (0 Bft) O-SO 247 0 min 0 W/m 5,0 C 11,3 C 0,0 km/h (0 Bft)
14/05/2012 23:10 11,2 C 66 % 1016,4 hPa 0,0 mm 0,0 km/h (0 Bft) O-SO 247 0 min 0 W/m 5,1 C 11,2 C 0,0 km/h (0 Bft)
14/05/2012 23:20 11,0 C 66 % 1016,4 hPa 0,0 mm 0,0 km/h (0 Bft) O-SO 247 0 min 0 W/m 4,9 C 11,0 C 0,0 km/h (0 Bft)
14/05/2012 23:30 10,8 C 68 % 1016,4 hPa 0,0 mm 0,0 km/h (0 Bft) SO 225 0 min 0 W/m 5,1 C 10,8 C 0,0 km/h (0 Bft)
14/05/2012 23:40 10,6 C 68 % 1016,5 hPa 0,0 mm 0,0 km/h (0 Bft) SO 225 0 min 0 W/m 4,9 C 10,6 C 0,0 km/h (0 Bft)
14/05/2012 23:50 10,4 C 68 % 1016,7 hPa 0,0 mm 0,0 km/h (0 Bft) SO 225 0 min 0 W/m 4,8 C 10,4 C 0,0 km/h (0 Bft)
_ Min-Heure 07:00 18:00 19:20 - 23:50 - - - - 06:50 07:00 23:50
Minimum _ 2,5 C 42 % 1015,4 hPa - 0,0 km/h (0 Bft) - - - - 0,7 C 2,5 C 0,0 km/h (0 Bft)
_ Max-Heure 16:20 08:50 00:50 23:50 16:30 - - 23:50 23:50 10:20 16:20 13:10
Maximum _ 21,5 C 90 % 1022,7 hPa 0,0 mm 7,9 km/h
N (2 Bft)
- - 0 min 0 W/m 9,5 C 21,5 C 13,3 km/h
NE (3 Bft)
Moyenne _ 12,5 C 65 % 1018,4 hPa #0,0 mm 1,3 km/h (1 Bft) NE - #0 min. 0 W/m 5,5 C 12,5 C 2,5 km/h (1 Bft)
Saint Bonnet de Bellac- Haute Vienne - France